• Join FlightAware (Why Join?)
  • Login
  • US Flag 
01:23PM EST


 

Airport Tracker/Info


-or-


 

Live Flight TrackerFlight Track Log ✈ N629SA ✈ 23-Oct-2013 ✈ KJAX - KDAB

Flight Track Log - Related Links

Times and Time Zones

All times are in EDT time to prevent confusion due to time zone crossing. See the N629SA flight status page for this flight to view local times or setup timezone preferences in your user account.

Time Position Orientation Groundspeed Altitude Reporting Facility
EDT Latitude Longitude Course Direction KTS MPH feet Rate Location/Type
10:35PM 30.5008 -81.6894 220° Southwest 88 101 300  Level Jacksonville Center
10:36PM 30.4761 -81.7139 220° Southwest 113 130 1,600 1,128 Climbing Jacksonville Center
10:37PM 30.4428 -81.7167 184° South 122 140 2,800 744 Climbing Jacksonville Center
10:38PM 30.4133 -81.6906 143° Southeast 148 170 3,100 155 Climbing Jacksonville Center
10:39PM 30.3858 -81.6572 134° Southeast 167 192 3,100  Level Jacksonville Center
10:40PM 30.3500 -81.6167 136° Southeast 169 194 3,100 -47 Level Jacksonville Center
10:41PM 30.3161 -81.5786 136° Southeast 167 192 3,000  Descending Jacksonville Center
10:42PM 30.2803 -81.5408 138° Southeast 167 192 3,100 49 Climbing Jacksonville Center
10:43PM 30.2444 -81.5028 137° Southeast 168 193 3,100  Level Jacksonville Center
10:44PM 30.2106 -81.4647 136° Southeast 166 191 3,100  Level Jacksonville Center
10:45PM 30.1725 -81.4222 136° Southeast 165 190 3,100  Level Jacksonville Center
10:46PM 30.1386 -81.3842 136° Southeast 165 190 3,100  Level Jacksonville Center
10:47PM 30.1069 -81.3486 136° Southeast 165 190 3,100  Level Jacksonville Center
10:48PM 30.0689 -81.3206 147° Southeast 167 192 3,100  Level Jacksonville Center
10:49PM 30.0289 -81.2925 149° Southeast 165 190 3,100  Level Jacksonville Center
10:50PM 29.9908 -81.2619 145° Southeast 166 191 3,100 -49 Level Jacksonville Center
10:51PM 29.9572 -81.2289 140° Southeast 167 192 3,000 -52 Descending Jacksonville Center
10:52PM 29.9275 -81.1933 134° Southeast 165 190 3,000  Level Jacksonville Center
10:53PM 29.8833 -81.1703 156° South 166 191 3,000 -234 Level Jacksonville Center
10:54PM 29.8669 -81.2064 242° Southwest 142 163 2,500 -414 Descending Jacksonville Center
10:55PM 29.8861 -81.2325 310° West 117 135 2,200 -545 Descending Jacksonville Center
10:56PM 29.9053 -81.2633 306° West 104 120 1,400 -520 Descending Jacksonville Center
10:57PM 29.9181 -81.2797 312° West 72 83 1,100 -344 Descending Jacksonville Center
10:58PM 29.9308 -81.3036 302° West 65 75 700 -74 Descending Jacksonville Center
11:00PM 29.9434 -81.2468 76° East  Level FlightAware Approximate
11:01PM 29.9669 -81.3558 163° South 69 79 800  Level Jacksonville Center
11:02PM 29.9653 -81.3844 266° West 152 175 1,600 907 Climbing Jacksonville Center
11:03PM 29.9508 -81.3992 221° Southwest 100 115 2,100 645 Climbing Jacksonville Center
11:04PM 29.9408 -81.4353 252° West 136 157 2,600 776 Climbing Jacksonville Center
11:05PM 29.9181 -81.4572 220° Southwest 145 167 3,600 744 Climbing Jacksonville Center
11:06PM 29.8825 -81.4408 158° South 151 174 4,100 198 Climbing Jacksonville Center
11:07PM 29.7196 -81.2426 163° South  Level FlightAware Approximate
11:07PM 29.8383 -81.4128 151° Southeast 165 190 4,000  Level Jacksonville Center
11:08PM 29.7983 -81.3919 156° South 163 188 4,000  Level Jacksonville Center
11:09PM 29.7583 -81.3686 153° Southeast 161 185 4,000  Level Jacksonville Center
11:10PM 29.7206 -81.3428 149° Southeast 161 185 4,000  Level Jacksonville Center
11:11PM 29.6867 -81.3100 140° Southeast 156 180 4,000  Level Jacksonville Center
11:12PM 29.6531 -81.2794 142° Southeast 159 183 4,000  Level Jacksonville Center
11:13PM 29.6169 -81.2467 142° Southeast 156 180 4,000  Level Jacksonville Center
11:14PM 29.5789 -81.2114 141° Southeast 158 182 4,000  Level Jacksonville Center
11:15PM 29.5472 -81.1808 140° Southeast 158 182 4,000  Level Jacksonville Center
11:16PM 29.5178 -81.1553 143° Southeast 159 183 4,000  Level Jacksonville Center
11:17PM 29.4817 -81.1225 142° Southeast 157 181 4,000  Level Jacksonville Center
11:18PM 29.4478 -81.0872 138° Southeast 156 180 4,000 -149 Level Jacksonville Center
11:19PM 29.4181 -81.0519 134° Southeast 159 183 3,700 -417 Descending Jacksonville Center
11:20PM 29.3906 -81.0192 134° Southeast 159 183 3,200 -522 Descending Jacksonville Center
11:21PM 29.3586 -80.9817 134° Southeast 164 189 2,700 -496 Descending Jacksonville Center
11:22PM 29.3269 -80.9442 134° Southeast 161 185 2,200 -496 Descending Jacksonville Center
11:23PM 29.2908 -80.9069 138° Southeast 171 197 1,700 -298 Descending Jacksonville Center
11:24PM 29.2511 -80.9125 187° South 146 168 1,600 -98 Descending Jacksonville Center
11:25PM 29.2267 -80.9414 226° Southwest 122 140 1,500 -50 Descending Jacksonville Center
11:26PM 29.2167 -80.9703 248° West 91 105 1,500 -248 Level Jacksonville Center
11:27PM 29.2044 -80.9989 244° Southwest 96 110 1,000 -492 Descending Jacksonville Center
11:28PM 29.1925 -81.0300 246° West 99 114 500 -220 Descending Jacksonville Center
11:29PM 29.1742 -81.0708 243° Southwest 95 109 400 407 Descending Jacksonville Center
11:32PM 29.1397 -81.1428 241° Southwest 137 158 2,100 755 Climbing Jacksonville Center
11:32PM 29.1336 -81.1547 240° Southwest 142 163 2,300 918 Climbing Jacksonville Center
11:33PM 29.1092 -81.1886 230° Southwest 124 143 3,400 985 Climbing Jacksonville Center